Location: *
(32.8667°N, 13.1833°E)
Time: 09:05:58
(UTC+00:00)

Cosmos 1844 Rocket - Pass Details

Date: 18 July 2019
Orbit: 823 x 846 km, 71.0° (Epoch: 20 August)

Event Time Altitude Azimuth Distance (km) Brightness Sun altitude
Rises 20:09:41 0° 355° (N) 3,409 6.6 -20.6°
Reaches altitude 10° 20:12:48 10° 12° (NNE) 2,472 5.5 -21.0°
Maximum altitude 20:16:58 21° 59° (ENE) 1,832 4.3 -21.6°
Enters shadow 20:18:00 20° 74° (ENE) 1,876 4.2 -21.8°
